EST,Max TemperatureF,Mean TemperatureF,Min TemperatureF,Max Dew PointF,MeanDew PointF,Min DewpointF,Max Humidity, Mean Humidity, Min Humidity, Max Sea Level PressureIn, Mean Sea Level PressureIn, Min Sea Level PressureIn, Max VisibilityMiles, Mean VisibilityMiles, Min VisibilityMiles, Max Wind SpeedMPH, Mean Wind SpeedMPH, Max Gust SpeedMPH,PrecipitationIn, CloudCover, Events, WindDirDegrees
2013-12-1,48,41,30,33,28,25,88,64,54,30.13,30.05,29.99,10,10,4,12,7,,0.00,2,,228
2013-12-2,39,34,28,32,29,25,89,81,70,29.97,29.91,29.86,8,5,2,10,4,,0.03,7,Rain,60
2013-12-3,48,42,35,43,37,32,93,85,77,29.88,29.84,29.82,9,4,1,14,8,,0.00,5,Rain,138
2013-12-4,60,52,44,52,48,40,87,80,75,29.88,29.78,29.69,10,8,4,16,11,24,0.01,6,,157
2013-12-5,62,45,28,54,37,25,93,78,65,30.17,29.94,29.70,10,8,1,21,14,28,0.04,7,Rain-Snow,275
2013-12-6,30,28,26,25,22,19,88,75,69,30.40,30.25,30.13,10,6,1,10,8,,0.06,8,Snow,333
2013-12-7,26,22,17,17,13,10,81,67,59,30.62,30.55,30.41,10,10,10,12,8,,0.00,4,,314
2013-12-8,30,24,18,28,19,11,93,77,65,30.56,30.25,29.97,10,7,2,16,9,,0.00,7,Snow,88
2013-12-9,32,26,21,29,22,11,93,78,63,30.22,30.06,29.92,10,9,2,23,15,29,0.00,7,Rain-Snow,245
2013-12-10,25,20,15,12,9,4,71,61,48,30.30,30.17,30.08,10,10,10,28,14,39,0.00,3,,247
2013-12-11,26,18,10,18,13,3,82,74,60,30.50,30.35,30.25,10,6,1,20,10,24,0.00,7,Snow,269
2013-12-12,19,11,3,7,1,-3,77,60,42,30.53,30.43,30.30,10,10,10,18,11,24,0.00,2,,237
2013-12-13,30,24,18,27,15,3,88,65,52,30.29,30.22,30.15,10,8,1,12,8,,0.04,3,Snow,189
2013-12-14,35,29,23,32,27,18,93,87,81,30.19,29.97,29.72,10,2,1,14,7,,0.35,8,Snow,80
2013-12-15,26,20,15,21,14,8,86,77,68,30.12,29.96,29.85,10,8,1,33,17,39,0.00,8,Snow,262
2013-12-16,26,19,12,23,13,6,89,79,68,30.18,30.08,29.96,10,5,0,10,6,,0.10,8,Fog-Rain-Snow,156
2013-12-17,28,24,21,24,20,18,93,83,74,30.09,30.02,29.94,8,5,1,18,11,28,0.00,8,Snow,257
2013-12-18,36,28,21,18,15,12,78,67,48,30.23,30.13,29.99,10,10,10,21,12,26,0.00,2,,220
2013-12-19,46,40,35,36,29,18,73,62,50,30.03,29.98,29.91,10,10,10,18,13,26,0.00,3,,197
2013-12-20,57,52,46,54,45,36,90,80,66,29.90,29.81,29.76,10,8,2,17,13,26,0.26,8,Rain,198
2013-12-21,57,46,35,54,42,35,100,91,86,29.82,29.71,29.52,10,5,2,22,11,39,2.56,8,Rain,26
2013-12-22,55,45,35,46,35,30,93,83,76,30.02,29.74,29.46,10,9,4,25,13,33,0.29,8,Rain,238
2013-12-23,35,28,21,31,23,14,86,76,67,30.37,30.24,30.01,10,10,8,21,14,26,0.00,8,Snow,267
2013-12-24,19,14,10,10,7,3,80,73,65,30.57,30.47,30.35,10,9,2,20,13,24,0.00,5,Snow,257
2013-12-25,28,22,17,23,16,10,81,72,58,30.51,30.31,30.14,10,10,7,16,10,24,0.00,7,,196
2013-12-26,34,29,26,27,21,14,86,70,50,30.33,30.22,30.09,10,10,7,24,14,32,0.00,6,Rain,239
2013-12-27,44,38,32,29,26,21,70,63,55,30.38,30.29,30.21,10,10,10,17,12,21,0.00,4,,217
2013-12-28,51,44,37,33,30,28,73,62,50,30.19,30.12,29.98,10,10,10,16,13,23,0.00,0,,207
2013-12-29,45,36,28,35,29,21,87,71,53,30.03,29.86,29.75,10,10,5,23,12,28,0.01,7,Rain,249
2013-12-30,27,24,21,22,14,10,81,67,57,30.26,30.17,30.01,10,10,3,16,9,,0.00,8,Snow,295
2013-12-31,23,19,15,16,12,8,86,73,63,30.35,30.22,30.09,10,7,2,23,14,30,0.00,7,Snow,262